Snowfall_Accumulation
0.0 0.0 0.0 0.0 0.0 0.0 0.0 0.0 0.0 0.0 0.0 0.0 0.0 0.0 0.0 0.0 0.0 0.0 0.0 0.0 0.0 0.0 0.0 0.0 0.0 0.0 0.0 0.0 0.0 0.0 0.0 0.0 0.0 0.0 0.0 0.0 0.0 0.0 0.0 0.0 0.0 0.0 0.0
0.0 0.0 0.0 0.0 0.0 0.0 0.0 0.0 0.0 0.0 0.0 0.0 0.0 0.0 0.0 0.0 0.0 0.0 0.0 0.0 0.0 0.0 0.0 0.0 0.0 0.0 0.0 0.0 0.0 0.0 0.0 0.0 0.0 0.0 0.0 0.0 0.0 0.0 0.0 0.0 0.0 0.0 0.0
0.0 0.0 0.0 0.0 0.0 0.0 0.0 0.0 0.0 0.0 0.0 0.0 0.0 0.0 0.0 0.0 0.0 0.0 0.0 0.0 0.0 0.0 0.0 0.0 0.0 0.0 0.0 0.0 0.0 0.0 0.0 0.0 0.0 0.0 0.0 0.0 0.0 0.0 0.0 0.0 0.0 0.0 0.0
0.0 0.0 0.0 0.0 0.0 0.0 0.0 0.0 0.0 0.0 0.0 0.0 0.0 0.0 0.0 0.0 0.0 0.0 0.0 0.0 0.0 0.0 0.0 0.0 0.0 0.0 0.0 0.0 0.0 0.0 0.0 0.0 0.0 0.0 0.0 0.0 0.1 0.3 0.2 0.3 0.6 0.4 0.5
0.0 0.0 0.0 0.0 0.0 0.0 0.0 0.0 0.0 0.0 0.0 0.0 0.0 0.0 0.0 0.0 0.0 0.0 0.0 0.0 0.0 0.0 0.0 0.0 0.0 0.0 nan nan 0.0 0.0 0.0 0.0 0.0 0.1 0.2 0.2 0.4 0.7 0.6 0.5 0.9 1.1 1.1
0.0 0.0 0.0 0.0 0.0 0.0 0.0 0.0 0.0 0.0 0.0 0.0 0.0 0.0 0.0 0.0 nan nan 0.0 0.0 0.0 0.0 0.0 0.0 0.0 0.0 0.0 nan nan nan nan 0.0 0.0 0.2 0.2 0.1 0.0 0.3 0.6 0.9 1.1 2.9 2.8
0.0 0.0 0.0 0.0 0.0 0.0 0.0 0.0 0.0 0.0 0.0 0.0 0.0 0.0 0.0 0.0 nan nan nan 0.0 0.0 0.0 0.0 0.0 0.0 0.0 0.0 0.0 nan nan nan nan nan 0.0 0.0 0.0 0.0 0.0 0.0 0.9 0.6 0.9 1.0
0.0 0.0 0.0 0.0 0.0 0.1 0.1 0.0 0.0 0.0 0.0 0.0 0.0 0.0 0.0 0.0 nan nan nan 0.0 0.0 0.0 0.0 0.0 0.0 0.0 0.0 0.0 0.0 0.0 0.0 0.0 0.0 0.0 0.0 0.0 0.0 0.0 0.0 0.0 0.1 0.6 1.9
0.0 0.0 0.0 0.0 0.0 0.0 0.0 0.0 0.0 0.0 0.0 0.0 0.0 0.0 0.0 0.0 nan nan 0.0 0.0 0.0 0.0 0.0 0.0 0.0 0.0 nan nan 0.0 0.1 0.2 0.1 nan nan nan nan nan nan nan 0.5 4.5 5.8 5.8
0.0 0.0 0.0 0.0 0.0 0.0 0.0 0.1 0.1 0.0 0.1 0.4 0.0 0.1 0.0 0.0 nan nan nan 0.2 0.0 0.4 0.1 0.1 0.0 0.0 nan nan 0.0 0.1 0.7 0.2 0.2 0.4 0.1 0.0 nan nan nan 0.0 0.6 4.4 4.6
0.1 0.1 0.1 0.1 0.1 0.0 0.0 0.1 0.1 0.1 0.1 0.1 0.1 0.1 0.1 0.0 0.0 nan nan 0.1 0.3 0.6 0.7 0.7 0.5 nan nan nan nan 0.1 0.1 0.2 0.9 1.2 1.2 1.3 0.8 0.6 0.9 0.5 0.1 0.7 3.7
0.2 0.2 0.2 0.2 0.1 0.1 0.1 0.1 0.3 0.1 0.2 0.4 0.5 0.7 0.8 0.1 nan nan nan nan nan 0.5 0.4 0.8 0.5 nan nan nan 0.2 nan nan 1.1 2.3 3.2 3.4 3.5 3.3 3.6 3.2 2.6 1.4 1.5 2.3
0.8 1.4 1.0 1.0 0.6 0.4 0.3 0.3 1.1 0.4 1.0 0.4 1.2 1.1 1.0 1.2 0.7 nan nan nan nan 1.0 0.8 0.6 nan nan nan nan nan nan 0.8 2.2 3.1 5.4 4.3 3.4 3.3 4.7 4.4 5.9 4.9 5.6 5.1
1.4 0.9 0.7 0.7 0.7 0.7 1.1 1.0 1.2 1.3 1.3 1.6 1.9 1.7 1.4 1.6 1.3 1.0 1.1 0.7 0.7 1.2 nan 1.0 nan 0.8 nan nan 1.4 1.6 2.9 2.9 3.5 4.0 4.4 4.8 5.0 6.9 8.3 6.1 9.3 9.1 13.4
0.9 0.8 0.7 1.1 0.6 0.7 1.1 1.0 1.1 0.5 1.1 2.2 2.5 1.9 2.9 3.1 2.2 0.9 1.7 2.4 2.2 2.3 2.8 4.1 4.4 3.7 4.0 4.0 5.2 5.4 5.3 5.8 6.8 7.1 9.2 9.4 9.4 9.4 10.6 9.1 10.1 13.6 13.9
0.7 1.7 1.2 1.1 1.2 1.2 1.3 1.5 nan nan nan nan nan 1.9 3.1 nan nan nan nan nan nan nan 7.7 9.3 6.1 5.6 5.1 5.6 7.1 7.7 7.5 6.4 6.8 8.1 9.5 9.9 11.4 11.6 12.5 15.3 12.1 13.8 15.7
1.1 0.7 1.6 1.7 1.5 2.0 2.6 2.4 3.5 2.5 nan nan nan nan nan nan nan nan nan nan nan nan 12.7 7.9 7.5 6.2 6.4 6.2 7.0 7.2 9.4 7.5 7.1 9.1 8.8 10.9 11.7 13.3 14.9 16.9 12.9 12.5 15.8
2.3 2.1 2.2 2.1 2.0 2.6 3.0 3.1 3.3 3.8 4.8 4.2 nan nan nan nan nan nan nan nan 12.8 nan 9.4 10.9 10.4 8.9 8.1 8.2 7.7 8.3 9.5 10.6 10.1 10.1 10.5 13.0 14.8 16.1 17.4 16.5 14.6 16.2 14.8
3.5 2.7 2.9 2.9 3.1 3.0 3.7 3.7 3.7 3.9 4.4 5.6 5.4 5.4 3.7 nan nan nan nan 8.1 12.0 11.1 10.8 11.3 9.7 10.3 9.5 9.6 9.9 11.7 11.1 12.8 12.7 15.1 15.0 16.1 15.7 16.4 17.8 14.3 13.5 9.2 9.6
4.7 3.6 3.6 5.0 4.9 4.5 3.6 4.7 4.8 4.9 5.8 6.3 6.6 6.1 6.9 6.9 10.6 11.5 9.8 11.8 11.7 10.7 9.8 10.6 11.2 12.5 13.3 13.1 13.6 13.6 14.9 16.3 15.5 15.9 15.9 15.3 15.0 16.0 13.0 16.0 15.6 14.9 15.3
5.9 5.9 3.7 5.7 6.9 7.3 7.4 6.8 6.0 7.2 6.9 7.6 6.5 5.2 nan 7.1 8.5 9.2 11.1 10.5 11.6 12.3 10.4 11.2 12.4 15.3 16.9 18.9 17.0 16.8 16.2 12.3 14.9 16.1 16.7 17.3 17.6 21.4 14.0 11.0 14.4 16.0 15.9
6.4 7.3 8.0 8.4 6.8 7.9 8.3 6.0 6.5 6.5 7.2 7.1 6.4 6.3 nan 6.9 7.4 7.3 7.6 9.5 10.7 10.4 11.6 13.9 14.8 16.7 15.4 15.1 14.9 14.2 12.7 14.9 16.1 15.9 14.6 15.3 18.3 17.1 16.8 13.2 13.9 13.2 16.1
5.8 5.7 6.0 6.2 6.2 5.2 8.3 8.5 9.6 9.1 8.5 8.9 8.0 8.5 9.1 10.7 8.9 8.5 10.9 10.7 8.9 8.8 9.5 9.9 9.4 9.9 9.1 10.9 9.9 10.0 11.7 13.2 13.6 17.4 13.9 15.5 16.3 18.6 17.2 16.4 15.2 17.2 16.9
6.1 6.6 6.5 7.7 8.5 8.8 10.7 11.6 10.0 5.6 9.9 10.0 13.1 10.9 7.2 8.6 11.0 8.7 8.3 9.0 7.3 11.9 8.8 9.7 7.9 7.8 8.8 13.4 16.9 16.5 17.7 18.6 18.7 17.7 17.1 14.1 15.0 13.8 15.5 17.2 14.5 14.2 13.3
7.7 8.0 8.4 8.5 11.5 10.0 9.7 11.7 8.6 10.6 11.8 9.1 10.9 8.2 8.1 7.7 8.5 10.6 9.5 8.3 9.3 8.7 7.4 7.2 7.0 7.4 7.7 8.6 11.8 14.1 14.5 4.6 11.3 5.0 16.2 13.0 15.9 16.9 17.8 16.3 15.6 14.7 14.4
6.8 7.4 7.9 8.3 8.5 8.9 9.6 9.5 9.7 7.7 9.8 10.0 9.2 9.0 7.9 8.3 7.9 9.3 9.4 9.7 8.4 8.1 8.5 8.6 8.1 7.5 7.3 7.7 8.2 5.6 4.4 4.1 14.1 4.6 15.2 14.1 16.6 16.1 16.3 17.3 17.2 18.5 16.5
Water_Equivalent
0.00 0.00 0.00 0.00 0.00 0.00 0.00 0.00 0.00 0.00 0.00 0.00 0.00 0.00 0.00 0.00 0.00 0.00 0.00 0.00 0.00 0.00 0.00 0.00 0.00 0.00 0.00 0.00 0.00 0.00 0.00 0.00 0.00 0.00 0.00 0.00 0.00 0.00 0.00 0.00 0.00 0.00 0.00
0.00 0.00 0.00 0.00 0.00 0.00 0.00 0.00 0.00 0.00 0.00 0.00 0.00 0.00 0.00 0.00 0.00 0.00 0.00 0.00 0.00 0.00 0.00 0.00 0.00 0.00 0.00 0.00 0.00 0.00 0.00 0.00 0.00 0.00 0.00 0.00 0.00 0.00 0.00 0.00 0.00 0.00 0.00
0.00 0.00 0.00 0.00 0.00 0.00 0.00 0.00 0.00 0.00 0.00 0.00 0.00 0.00 0.00 0.00 0.00 0.00 0.00 0.00 0.00 0.00 0.00 0.00 0.00 0.00 0.00 0.00 0.00 0.00 0.00 0.00 0.00 0.00 0.00 0.00 0.00 0.00 0.00 0.01 0.00 0.00 0.00
0.00 0.00 0.00 0.00 0.00 0.00 0.00 0.00 0.00 0.00 0.00 0.00 0.00 0.00 0.00 0.00 0.00 0.00 0.00 0.00 0.00 0.00 0.00 0.00 0.00 0.00 0.00 0.00 0.00 0.00 0.00 0.00 0.00 0.00 0.01 0.02 0.05 0.12 0.07 0.13 0.24 0.17 0.18
0.00 0.00 0.00 0.00 0.00 0.00 0.00 0.00 0.00 0.00 0.00 0.00 0.00 0.00 0.00 0.00 0.00 0.00 0.00 0.00 0.00 0.00 0.00 0.00 0.00 0.00 nan nan 0.00 0.00 0.00 0.00 0.00 0.03 0.06 0.09 0.16 0.29 0.23 0.22 0.35 0.42 0.42
0.00 0.00 0.00 0.00 0.00 0.00 0.00 0.00 0.00 0.00 0.00 0.00 0.00 0.00 0.00 0.00 nan nan 0.00 0.00 0.00 0.00 0.00 0.00 0.00 0.00 0.00 nan nan nan nan 0.00 0.00 0.06 0.06 0.05 0.01 0.13 0.22 0.36 0.45 1.07 0.96
0.00 0.01 0.00 0.01 0.00 0.00 0.00 0.00 0.00 0.00 0.00 0.00 0.00 0.00 0.00 0.00 nan nan nan 0.00 0.00 0.00 0.00 0.00 0.00 0.00 0.00 0.00 nan nan nan nan nan 0.00 0.00 0.02 0.02 0.00 0.02 0.35 0.25 0.35 0.41
0.00 0.00 0.00 0.00 0.02 0.02 0.02 0.00 0.00 0.00 0.00 0.00 0.00 0.00 0.00 0.00 nan nan nan 0.00 0.00 0.00 0.00 0.00 0.00 0.00 0.00 0.00 0.00 0.00 0.00 0.00 0.00 0.00 0.00 0.00 0.00 0.00 0.00 0.00 0.02 0.21 0.60
0.01 0.00 0.00 0.00 0.02 0.02 0.01 0.01 0.01 0.00 0.00 0.00 0.00 0.00 0.00 0.00 nan nan 0.00 0.00 0.00 0.00 0.00 0.00 0.00 0.00 nan nan 0.00 0.03 0.07 0.03 nan nan nan nan nan nan nan 0.21 1.80 2.15 1.53
0.02 0.02 0.01 0.01 0.01 0.01 0.02 0.02 0.03 0.02 0.02 0.14 0.02 0.02 0.00 0.00 nan nan nan 0.08 0.02 0.15 0.03 0.02 0.01 0.00 nan nan 0.01 0.04 0.30 0.08 0.07 0.16 0.04 0.01 nan nan nan 0.00 0.25 1.68 1.23
0.03 0.03 0.03 0.02 0.03 0.01 0.02 0.02 0.03 0.03 0.03 0.04 0.06 0.05 0.04 0.02 0.00 nan nan 0.03 0.14 0.25 0.28 0.29 0.19 nan nan nan nan 0.03 0.05 0.08 0.36 0.46 0.48 0.50 0.32 0.22 0.34 0.20 0.06 0.27 1.15
0.07 0.07 0.07 0.08 0.04 0.03 0.06 0.05 0.13 0.05 0.07 0.16 0.18 0.27 0.34 0.05 nan nan nan nan nan 0.21 0.18 0.32 0.22 nan nan nan 0.09 nan nan 0.38 0.92 1.24 1.14 1.07 0.95 0.98 0.88 0.69 0.35 0.38 0.50
0.22 0.41 0.35 0.33 0.23 0.16 0.11 0.12 0.42 0.14 0.39 0.16 0.48 0.44 0.35 0.39 0.29 nan nan nan nan 0.38 0.31 0.25 nan nan nan nan nan nan 0.27 0.78 1.09 1.60 1.18 0.87 0.83 0.97 0.87 0.99 0.76 0.87 0.82
0.45 0.26 0.20 0.23 0.22 0.25 0.43 0.39 0.50 0.51 0.51 0.64 0.72 0.64 0.47 0.51 0.45 0.39 0.44 0.27 0.27 0.47 nan 0.38 nan 0.33 nan nan 0.50 0.57 0.89 0.89 0.97 1.06 1.07 0.95 0.99 1.37 1.54 1.16 1.48 1.46 2.02
0.27 0.18 0.20 0.34 0.23 0.23 0.30 0.42 0.44 0.19 0.44 0.86 1.02 0.76 1.07 1.13 0.81 0.34 0.68 0.97 0.86 0.92 1.07 1.58 1.46 1.11 1.12 1.10 1.40 1.40 1.35 1.43 1.55 1.61 1.79 1.68 1.67 1.69 1.72 1.58 1.67 2.02 2.14
0.17 0.43 0.36 0.37 0.38 0.37 0.42 0.49 nan nan nan nan nan 0.75 1.21 nan nan nan nan nan nan nan 2.76 2.93 1.66 1.50 1.30 1.38 1.63 1.65 1.63 1.51 1.53 1.77 1.94 1.89 2.00 1.91 1.95 2.20 2.01 2.20 2.31
0.28 0.18 0.45 0.45 0.44 0.57 0.71 0.75 0.92 0.83 nan nan nan nan nan nan nan nan nan nan nan nan 4.40 2.46 2.17 1.67 1.65 1.53 1.68 1.70 1.74 1.54 1.53 1.84 1.74 1.93 2.05 2.27 2.43 2.29 1.99 1.91 2.45
0.51 0.71 0.62 0.61 0.60 0.73 0.82 0.88 0.93 1.05 1.28 1.16 nan nan nan nan nan nan nan nan 4.17 nan 3.27 3.42 3.00 2.49 2.12 1.97 1.77 1.75 1.79 1.88 1.74 1.79 1.89 2.41 2.72 2.92 2.80 2.59 2.20 2.59 2.38
0.78 0.70 0.75 0.80 0.86 0.86 1.01 0.98 0.97 1.04 1.14 1.44 1.50 1.64 1.22 nan nan nan nan 2.73 3.69 3.29 3.19 3.33 2.75 2.66 2.32 2.37 2.29 2.52 2.20 2.28 2.23 2.82 2.78 3.03 2.86 3.00 3.02 2.31 2.00 1.85 1.88
1.06 1.13 1.00 1.25 1.19 1.11 0.90 1.14 1.14 1.18 1.38 1.58 1.70 1.65 2.37 2.31 3.32 3.51 2.81 3.66 3.48 3.08 2.77 3.01 3.16 3.49 3.49 3.22 3.19 2.99 3.02 3.15 2.83 2.90 2.88 2.76 2.63 2.86 2.08 2.73 2.47 2.15 2.31
1.39 1.34 1.21 1.31 1.63 1.69 1.76 1.54 1.37 1.75 1.66 1.84 1.60 1.61 nan 2.03 2.29 2.51 3.02 2.83 3.16 3.40 2.80 3.05 3.26 4.14 4.29 4.73 3.93 3.76 3.50 2.31 2.80 3.06 3.28 3.21 3.12 3.92 2.38 1.65 2.31 2.58 2.50
1.47 1.70 1.78 1.88 1.49 1.67 1.81 1.31 1.46 1.48 1.44 1.36 1.27 1.49 nan 1.59 1.73 1.82 1.95 2.59 2.98 2.92 3.28 3.96 3.92 4.32 3.84 3.60 3.29 3.06 2.54 3.01 3.31 3.14 2.60 2.69 3.26 2.89 2.87 2.04 2.13 1.90 2.50
1.26 1.15 1.25 1.31 1.31 1.50 1.75 1.96 1.80 1.74 1.62 1.75 1.60 1.70 1.89 2.24 1.85 1.71 2.58 2.76 2.19 2.06 2.30 2.42 2.25 2.25 2.04 2.42 2.13 2.08 2.32 2.64 2.73 3.82 2.58 2.75 2.73 3.17 2.89 2.63 2.33 2.63 2.50
1.27 1.35 1.30 1.62 1.56 1.50 1.86 2.04 1.78 1.60 1.83 1.86 2.77 2.25 1.35 1.66 2.32 1.69 1.64 2.02 1.62 2.98 2.02 2.18 1.72 1.69 1.92 3.13 4.11 4.02 4.37 4.61 4.46 4.03 3.68 2.48 2.49 2.29 2.31 2.69 2.12 2.09 1.76
1.48 1.37 1.45 1.40 2.10 1.73 1.66 2.02 1.39 1.87 2.17 1.63 2.09 1.50 1.50 1.40 1.57 2.20 1.96 1.56 1.79 1.64 1.39 1.38 1.41 1.53 1.61 1.76 2.54 3.35 3.57 1.52 2.71 1.66 3.27 2.28 2.75 2.79 2.71 2.37 2.21 1.93 1.79
1.17 1.26 1.33 1.39 1.39 1.53 1.62 1.55 1.61 1.23 1.67 1.79 1.66 1.67 1.41 1.44 1.43 1.76 1.66 1.70 1.38 1.38 1.45 1.55 1.50 1.39 1.32 1.46 1.62 1.68 1.45 1.35 2.99 1.53 2.87 2.43 2.73 2.46 2.40 2.48 2.35 2.31 1.92
SL_Ratio
nan nan nan nan nan nan nan nan nan nan nan nan nan nan nan nan nan nan nan nan nan nan nan nan nan nan nan nan nan nan nan nan nan nan nan nan nan nan nan nan nan nan nan
nan nan nan nan nan nan nan nan nan nan nan nan nan nan nan nan nan nan nan nan nan nan nan nan nan nan nan nan nan nan nan nan nan nan nan nan nan nan nan nan nan nan nan
nan nan nan nan nan nan nan nan nan nan nan nan nan nan nan nan nan nan nan nan nan nan nan nan nan nan nan nan nan nan nan nan nan nan nan nan 2.5 nan 2.5 2.5 nan nan nan
nan nan nan nan nan nan nan nan nan nan nan nan nan nan nan nan nan nan nan nan nan nan nan nan nan nan nan nan nan nan nan nan nan nan 2.3 2.4 2.5 2.5 2.5 2.5 2.5 2.5 2.5
nan nan nan nan nan nan nan nan nan nan nan nan nan nan nan nan nan nan nan nan nan nan nan nan nan nan nan nan nan nan nan nan nan 2.6 2.5 2.5 2.5 2.5 2.5 2.5 2.5 2.5 2.5
nan nan nan nan nan nan nan nan nan nan nan nan nan nan nan nan nan nan nan nan nan nan nan nan nan nan nan nan nan nan nan nan nan 2.5 2.5 2.5 2.3 2.5 2.5 2.5 2.5 2.7 2.9
nan 2.7 2.5 2.7 3.3 nan 2.5 nan nan nan nan nan nan nan nan nan nan nan nan nan nan nan nan nan nan nan nan nan nan nan nan nan nan nan nan 2.4 2.5 2.5 2.5 2.5 2.5 2.5 2.5
nan nan nan nan 2.5 2.5 2.6 5.0 nan nan nan nan nan nan nan nan nan nan nan nan nan nan nan nan nan nan nan nan nan nan nan nan nan nan nan nan nan nan nan nan 2.6 2.9 3.1
2.5 nan 3.3 1.7 2.5 2.6 2.5 2.7 2.2 nan nan nan nan nan nan nan nan nan nan nan nan nan nan nan nan nan nan nan nan 2.5 2.5 2.5 nan nan nan nan nan nan nan 2.5 2.5 2.7 3.8
2.7 2.4 2.3 2.5 2.3 2.5 2.4 2.5 2.5 2.6 2.6 2.5 2.5 2.6 2.1 3.3 nan nan nan 2.5 2.6 2.5 2.5 2.5 2.5 nan nan nan 2.5 2.5 2.5 2.7 2.5 2.5 2.5 2.8 nan nan nan 0.0 2.5 2.6 3.7
2.9 2.6 2.4 2.5 2.5 2.7 2.6 2.6 2.5 2.5 2.5 2.5 2.5 2.5 2.5 2.5 nan nan nan 2.5 2.5 2.5 2.5 2.5 2.5 nan nan nan nan 2.5 2.5 2.5 2.5 2.5 2.6 2.5 2.6 2.5 2.6 2.5 2.6 2.5 3.2
3.4 3.2 3.0 2.6 2.5 2.6 2.5 2.5 2.5 2.5 2.5 2.5 2.5 2.6 2.5 2.5 nan nan nan nan nan 2.5 2.5 2.5 2.5 nan nan nan 2.5 nan nan 2.8 2.5 2.6 3.0 3.2 3.4 3.7 3.7 3.8 4.1 3.9 4.5
3.5 3.3 3.0 3.0 2.6 2.5 2.5 2.5 2.5 2.5 2.5 2.5 2.5 2.6 2.8 3.0 2.5 nan nan nan nan 2.5 2.5 2.5 nan nan nan nan nan nan 3.0 2.7 2.9 3.4 3.7 3.9 4.0 4.8 5.0 6.0 6.5 6.4 6.3
3.0 3.6 3.5 3.2 3.0 2.8 2.5 2.5 2.5 2.5 2.5 2.5 2.6 2.6 2.9 3.2 2.8 2.5 2.5 2.5 2.8 2.5 nan 2.5 nan 2.5 nan nan 2.7 2.8 3.3 3.3 3.6 3.8 4.1 5.1 5.1 5.1 5.4 5.3 6.3 6.2 6.7
3.4 4.3 3.6 3.1 2.7 3.2 3.7 2.5 2.5 2.6 2.5 2.5 2.5 2.5 2.7 2.8 2.7 2.5 2.5 2.5 2.5 2.5 2.7 2.6 3.0 3.3 3.6 3.7 3.7 3.9 3.9 4.1 4.4 4.4 5.2 5.6 5.6 5.6 6.1 5.7 6.0 6.8 6.5
4.1 3.9 3.2 3.0 3.1 3.2 3.2 3.2 nan nan nan nan nan 2.5 2.6 nan nan nan nan nan nan nan 2.8 3.2 3.7 3.7 3.9 4.1 4.4 4.7 4.6 4.2 4.5 4.6 4.9 5.2 5.7 6.1 6.4 6.9 6.0 6.3 6.8
3.9 3.9 3.6 3.7 3.4 3.6 3.6 3.3 3.8 3.1 nan nan nan nan nan nan nan nan nan nan nan nan 2.9 3.2 3.5 3.7 3.9 4.0 4.1 4.3 5.4 4.9 4.6 5.0 5.1 5.6 5.7 5.8 6.1 7.4 6.5 6.6 6.4
4.5 3.0 3.6 3.5 3.3 3.5 3.6 3.5 3.5 3.6 3.8 3.6 nan nan nan nan nan nan nan nan 3.1 nan 2.9 3.2 3.4 3.6 3.8 4.2 4.3 4.7 5.3 5.7 5.8 5.7 5.6 5.4 5.4 5.5 6.2 6.4 6.6 6.3 6.2
4.5 3.9 3.8 3.6 3.6 3.5 3.6 3.8 3.8 3.8 3.9 3.9 3.6 3.3 3.0 nan nan nan nan 3.0 3.2 3.4 3.4 3.4 3.5 3.9 4.1 4.0 4.3 4.7 5.1 5.6 5.7 5.4 5.4 5.3 5.5 5.5 5.9 6.2 6.7 5.0 5.1
4.5 3.2 3.6 4.0 4.1 4.1 4.0 4.2 4.2 4.1 4.2 4.0 3.9 3.7 2.9 3.0 3.2 3.3 3.5 3.2 3.4 3.5 3.5 3.5 3.6 3.6 3.8 4.1 4.2 4.6 4.9 5.2 5.5 5.5 5.5 5.6 5.7 5.6 6.3 5.9 6.3 6.9 6.6
4.3 4.4 3.0 4.3 4.2 4.3 4.2 4.4 4.4 4.1 4.1 4.1 4.1 3.2 nan 3.5 3.7 3.7 3.7 3.7 3.7 3.6 3.7 3.7 3.8 3.7 3.9 4.0 4.3 4.5 4.6 5.3 5.3 5.3 5.1 5.4 5.6 5.5 5.9 6.6 6.2 6.2 6.4
4.3 4.3 4.5 4.5 4.6 4.7 4.6 4.5 4.4 4.4 5.0 5.2 5.0 4.2 nan 4.3 4.3 4.0 3.9 3.7 3.6 3.6 3.5 3.5 3.8 3.9 4.0 4.2 4.5 4.6 5.0 4.9 4.9 5.1 5.6 5.7 5.6 5.9 5.9 6.5 6.5 6.9 6.5
4.6 4.9 4.8 4.8 4.7 3.5 4.8 4.4 5.3 5.2 5.2 5.1 5.0 5.0 4.8 4.8 4.8 5.0 4.2 3.9 4.0 4.3 4.1 4.1 4.2 4.4 4.4 4.5 4.7 4.8 5.0 5.0 5.0 4.6 5.4 5.7 5.9 5.9 6.0 6.2 6.5 6.5 6.8
4.8 4.9 5.0 4.8 5.5 5.8 5.7 5.7 5.6 3.5 5.4 5.4 4.7 4.8 5.3 5.2 4.7 5.1 5.0 4.5 4.5 4.0 4.4 4.4 4.6 4.6 4.6 4.3 4.1 4.1 4.1 4.0 4.2 4.4 4.6 5.7 6.0 6.0 6.7 6.4 6.8 6.8 7.6
5.2 5.9 5.8 6.0 5.5 5.8 5.9 5.8 6.2 5.7 5.4 5.5 5.2 5.5 5.4 5.5 5.4 4.8 4.8 5.3 5.2 5.3 5.4 5.2 5.0 4.8 4.8 4.9 4.6 4.2 4.1 3.0 4.2 3.0 4.9 5.7 5.8 6.0 6.6 6.9 7.1 7.6 8.0
5.9 5.8 5.9 6.0 6.1 5.9 5.9 6.1 6.0 6.2 5.9 5.6 5.5 5.4 5.6 5.8 5.6 5.3 5.6 5.7 6.1 5.9 5.8 5.6 5.4 5.4 5.5 5.2 5.0 3.3 3.0 3.0 4.7 3.0 5.3 5.8 6.1 6.5 6.8 7.0 7.3 8.0 8.6